Total_Precipitation_Accumulation
0.96 1.15 1.45 1.81 2.11 2.29 2.60 2.76 2.99 3.21 3.28 3.21 2.89 2.59 2.39 2.32 2.19 1.92 1.70 1.67 1.61 1.51 1.55 1.60 1.46 1.29 1.25 1.20 1.10 1.04 1.02 1.07 1.13 1.10 0.95 0.79 0.69 0.57 0.49 0.44 0.37 0.31 0.27
0.78 0.97 1.33 1.53 1.75 2.01 2.21 2.52 2.61 2.91 2.97 2.89 2.85 2.68 2.59 2.50 2.41 2.24 1.95 1.82 1.77 1.66 1.57 1.55 1.54 1.39 1.28 1.31 1.33 1.24 1.16 1.10 1.13 1.19 1.18 1.02 0.90 0.71 0.55 0.50 0.47 0.42 0.39
0.60 0.75 1.07 1.36 1.48 1.73 2.03 2.17 2.31 2.55 2.80 2.86 2.99 3.07 2.99 2.72 2.44 2.29 2.20 2.03 1.93 1.85 1.71 1.62 1.62 1.55 1.39 1.29 1.35 1.39 1.35 1.34 1.33 1.29 1.40 1.29 1.02 0.81 0.63 0.53 0.51 0.49 0.47
0.50 0.60 0.71 0.98 1.20 1.38 1.75 2.07 2.28 2.43 2.61 2.93 2.92 2.81 2.67 2.47 2.19 2.16 2.24 2.22 2.12 2.01 1.86 1.79 1.78 1.69 1.56 1.43 1.42 1.44 1.49 1.54 1.52 1.48 1.38 1.29 1.11 1.05 0.85 0.61 0.52 0.50 0.46
0.55 0.55 0.58 0.73 0.94 1.13 1.46 1.79 2.06 2.38 2.61 2.73 2.74 2.76 2.56 2.37 2.32 2.23 2.23 2.14 2.04 1.99 1.94 1.88 1.93 1.86 1.74 1.67 1.68 1.64 1.64 1.65 1.64 1.58 1.50 1.45 1.30 1.15 1.10 0.86 0.65 0.61 0.55
0.55 0.54 0.55 0.65 0.82 0.94 1.16 1.49 1.77 1.94 2.23 2.52 2.53 2.52 2.51 2.46 2.42 2.23 2.14 2.12 2.08 2.01 1.93 1.94 1.98 1.99 1.93 1.84 1.80 1.81 1.82 1.81 1.77 1.73 1.60 1.52 1.45 1.29 1.28 1.15 0.90 0.82 0.73
0.46 0.47 0.52 0.60 0.74 0.88 1.01 1.18 1.38 1.52 1.73 2.00 2.15 2.16 2.25 2.35 2.28 2.18 1.99 1.94 1.90 1.85 1.82 1.82 1.90 1.98 1.96 1.94 1.92 1.92 1.89 1.90 1.91 1.87 1.78 1.67 1.54 1.45 1.49 1.49 1.27 1.07 0.89
0.45 0.43 0.43 0.50 0.62 0.73 0.88 0.99 1.10 1.23 1.41 1.60 1.76 1.91 2.01 2.17 2.19 2.16 1.94 1.80 1.73 1.71 1.80 1.75 1.68 1.73 1.82 1.86 1.87 1.85 1.81 1.81 1.80 1.75 1.73 1.70 1.57 1.55 1.60 1.68 1.77 1.66 1.31
0.43 0.41 0.41 0.42 0.52 0.60 0.70 0.82 0.95 1.05 1.16 1.33 1.51 1.67 1.76 1.83 1.90 1.99 1.97 1.81 1.72 1.67 1.67 1.60 1.52 1.47 1.50 1.61 1.71 1.71 1.69 1.70 1.70 1.66 1.63 1.65 1.58 1.56 1.60 1.71 1.90 2.11 1.91
0.43 0.40 0.41 0.45 0.52 0.54 0.58 0.69 0.85 0.91 0.97 1.07 1.22 1.34 1.48 1.63 1.71 1.75 1.75 1.68 1.64 1.62 1.58 1.48 1.38 1.32 1.31 1.35 1.44 1.47 1.47 1.50 1.49 1.49 1.49 1.47 1.45 1.49 1.54 1.60 1.68 1.85 1.95
0.45 0.45 0.47 0.54 0.59 0.56 0.58 0.66 0.76 0.87 0.94 0.98 1.06 1.12 1.14 1.24 1.41 1.54 1.58 1.57 1.54 1.52 1.49 1.42 1.35 1.29 1.23 1.20 1.21 1.20 1.24 1.31 1.31 1.34 1.34 1.27 1.24 1.31 1.35 1.39 1.45 1.52 1.64
0.41 0.47 0.54 0.55 0.57 0.60 0.63 0.68 0.72 0.81 0.92 0.96 0.99 1.05 1.07 1.06 1.14 1.26 1.38 1.47 1.54 1.45 1.42 1.39 1.31 1.24 1.20 1.15 1.13 1.10 1.09 1.13 1.16 1.18 1.23 1.21 1.16 1.17 1.20 1.24 1.23 1.24 1.27
0.40 0.41 0.49 0.53 0.55 0.60 0.69 0.73 0.78 0.79 0.83 0.88 0.90 0.92 0.93 0.92 0.96 1.03 1.15 1.23 1.34 1.35 1.31 1.32 1.26 1.16 1.13 1.10 1.08 1.04 1.03 1.04 1.02 1.04 1.12 1.16 1.18 1.18 1.17 1.17 1.15 1.14 1.17
0.39 0.39 0.44 0.48 0.53 0.58 0.63 0.64 0.73 0.77 0.79 0.80 0.87 0.88 0.85 0.84 0.89 0.97 1.02 1.08 1.13 1.21 1.21 1.22 1.26 1.25 1.19 1.16 1.12 1.08 1.04 1.04 1.02 1.00 1.06 1.11 1.12 1.08 1.06 1.08 1.06 1.08 1.13
0.36 0.40 0.42 0.45 0.48 0.47 0.46 0.50 0.56 0.65 0.69 0.73 0.82 0.87 0.87 0.91 1.00 1.03 0.99 0.99 1.01 1.07 1.13 1.15 1.20 1.23 1.23 1.20 1.19 1.16 1.14 1.15 1.15 1.10 1.06 1.06 1.11 1.09 1.05 1.04 1.04 1.07 1.15
0.30 0.32 0.36 0.41 0.43 0.42 0.41 0.43 0.46 0.51 0.53 0.58 0.67 0.76 0.83 0.91 1.01 1.06 1.03 0.99 0.96 1.01 1.09 1.10 1.16 1.23 1.25 1.40 1.37 1.26 1.22 1.22 1.18 1.11 1.02 0.99 1.03 1.03 1.07 1.08 1.07 1.14 1.24
0.26 0.26 0.28 0.33 0.34 0.35 0.37 0.39 0.41 0.45 0.48 0.49 0.54 0.64 0.80 0.87 0.92 0.99 1.03 1.01 1.00 1.09 1.19 1.20 1.22 1.30 1.42 1.50 1.33 1.26 1.15 1.14 1.10 1.03 0.98 0.92 0.89 0.95 0.88 0.94 1.01 1.05 1.16
0.22 0.21 0.24 0.26 0.26 0.28 0.30 0.31 0.33 0.39 0.48 0.52 0.57 0.65 0.74 0.84 0.95 1.01 1.06 1.08 1.08 1.15 1.24 1.29 1.30 1.33 1.37 1.41 1.31 1.24 1.07 1.02 0.98 0.92 0.87 0.86 0.84 0.85 0.92 0.99 1.04 0.96 0.90
0.21 0.20 0.21 0.22 0.21 0.23 0.27 0.27 0.30 0.36 0.44 0.50 0.56 0.60 0.69 0.80 0.92 1.03 1.10 1.13 1.15 1.18 1.23 1.21 1.19 1.16 1.18 1.19 1.10 1.10 1.01 1.01 0.95 0.89 0.86 0.86 0.83 0.92 1.07 1.12 1.13 0.98 0.83
0.24 0.24 0.22 0.21 0.21 0.23 0.25 0.28 0.32 0.36 0.44 0.47 0.53 0.57 0.63 0.73 0.85 0.96 1.05 1.10 1.12 1.12 1.09 1.07 1.02 0.98 0.99 1.07 0.99 0.99 0.98 0.99 0.93 0.88 0.86 0.93 0.92 1.02 1.14 1.08 1.09 1.01 0.84
0.25 0.29 0.31 0.30 0.31 0.33 0.34 0.35 0.37 0.41 0.44 0.47 0.53 0.57 0.61 0.68 0.78 0.84 0.88 0.91 0.92 0.91 0.89 0.86 0.83 0.81 0.84 0.90 0.88 0.90 0.93 0.94 0.96 0.95 0.88 0.87 1.04 1.14 1.18 1.08 0.92 0.93 0.99
0.28 0.33 0.38 0.39 0.40 0.41 0.42 0.42 0.45 0.47 0.47 0.48 0.53 0.59 0.61 0.60 0.62 0.66 0.71 0.70 0.70 0.72 0.72 0.73 0.73 0.74 0.77 0.80 0.83 0.88 0.94 1.00 0.94 0.90 0.83 0.86 1.05 1.07 1.03 0.97 0.97 1.06 1.01
0.33 0.34 0.37 0.38 0.38 0.42 0.46 0.48 0.49 0.48 0.47 0.49 0.50 0.52 0.54 0.53 0.54 0.55 0.58 0.60 0.62 0.64 0.67 0.68 0.69 0.70 0.70 0.73 0.82 0.84 0.91 0.98 0.91 0.87 0.92 0.97 0.99 0.94 0.89 0.92 0.95 0.93 0.88
0.35 0.34 0.33 0.34 0.36 0.38 0.42 0.44 0.43 0.41 0.40 0.43 0.42 0.42 0.43 0.46 0.47 0.49 0.52 0.57 0.59 0.59 0.60 0.62 0.62 0.63 0.63 0.62 0.66 0.75 0.80 0.87 0.87 0.90 0.92 0.90 0.86 0.84 0.85 0.91 0.88 0.81 0.86
0.36 0.33 0.33 0.34 0.35 0.35 0.36 0.38 0.38 0.36 0.36 0.37 0.35 0.35 0.36 0.41 0.45 0.47 0.50 0.54 0.58 0.63 0.64 0.60 0.59 0.62 0.62 0.62 0.76 0.81 0.78 0.84 0.89 0.90 0.80 0.75 0.75 0.77 0.75 0.74 0.77 0.80 0.85
0.36 0.33 0.32 0.34 0.34 0.32 0.33 0.33 0.34 0.36 0.36 0.36 0.36 0.36 0.34 0.38 0.45 0.48 0.50 0.55 0.59 0.65 0.69 0.69 0.65 0.61 0.64 0.69 0.74 0.78 0.84 0.89 0.92 0.86 0.77 0.72 0.70 0.70 0.71 0.71 0.72 0.76 0.82